TimeCST,TemperatureF,Dew PointF,Humidity,Sea Level PressureIn,VisibilityMPH,Wind Direction,Wind SpeedMPH,Gust SpeedMPH,PrecipitationIn,Events,Conditions,WindDirDegrees,DateUTC
12:56 AM,52.0,41.9,69,30.06,10.0,SSW,6.9,-,N/A,,Partly Cloudy,210,2012-11-23 06:56:00
1:56 AM,52.9,43.0,69,30.05,10.0,SW,4.6,-,N/A,,Mostly Cloudy,220,2012-11-23 07:56:00
2:56 AM,54.9,45.9,72,30.05,10.0,West,9.2,-,0.00,,Mostly Cloudy,260,2012-11-23 08:56:00
3:33 AM,55.4,48.2,77,30.05,10.0,West,11.5,-,N/A,,Overcast,270,2012-11-23 09:33:00
3:56 AM,54.9,48.9,80,30.06,10.0,WSW,10.4,-,0.00,Rain,Light Rain,250,2012-11-23 09:56:00
4:56 AM,54.0,50.9,89,30.07,10.0,NW,11.5,-,0.00,,Overcast,310,2012-11-23 10:56:00
5:28 AM,53.6,39.2,58,30.09,10.0,NNW,15.0,-,N/A,,Overcast,340,2012-11-23 11:28:00
5:56 AM,50.9,41.0,69,30.11,10.0,NNW,12.7,-,N/A,,Mostly Cloudy,330,2012-11-23 11:56:00
6:56 AM,46.9,37.9,71,30.14,10.0,NW,17.3,-,N/A,,Clear,320,2012-11-23 12:56:00
7:56 AM,46.9,38.8,73,30.18,10.0,WNW,8.1,-,N/A,,Clear,300,2012-11-23 13:56:00
8:56 AM,47.8,34.0,59,30.19,10.0,NW,11.5,19.6,N/A,,Clear,320,2012-11-23 14:56:00
9:56 AM,50.9,31.1,47,30.19,10.0,NW,17.3,25.3,N/A,,Clear,310,2012-11-23 15:56:00
10:56 AM,52.9,32.0,45,30.18,10.0,NW,18.4,25.3,N/A,,Clear,310,2012-11-23 16:56:00
12:56 PM,50.0,32.0,50,30.17,10.0,WNW,20.7,27.6,N/A,,Overcast,300,2012-11-23 18:56:00
1:56 PM,48.9,31.1,50,30.17,10.0,WNW,18.4,25.3,N/A,,Mostly Cloudy,300,2012-11-23 19:56:00
2:56 PM,46.9,31.1,54,30.19,10.0,NW,17.3,25.3,N/A,,Mostly Cloudy,310,2012-11-23 20:56:00
3:56 PM,45.9,30.0,54,30.20,10.0,NW,12.7,23.0,N/A,,Scattered Clouds,310,2012-11-23 21:56:00
4:56 PM,43.9,30.0,58,30.22,10.0,NW,11.5,18.4,N/A,,Scattered Clouds,310,2012-11-23 22:56:00
5:56 PM,41.9,28.0,58,30.25,10.0,NNW,16.1,-,N/A,,Mostly Cloudy,330,2012-11-23 23:56:00
6:56 PM,38.8,24.1,55,30.27,10.0,NW,13.8,-,N/A,,Clear,320,2012-11-24 00:56:00
7:56 PM,36.9,25.2,63,30.28,10.0,NNW,6.9,-,N/A,,Clear,330,2012-11-24 01:56:00
8:56 PM,36.9,23.0,57,30.29,10.0,NNW,11.5,-,N/A,,Clear,330,2012-11-24 02:56:00
9:56 PM,34.9,22.1,60,30.29,10.0,NNW,10.4,-,N/A,,Clear,330,2012-11-24 03:56:00
10:56 PM,32.9,22.1,65,30.30,10.0,NNW,8.1,-,N/A,,Clear,340,2012-11-24 04:56:00
11:56 PM,31.1,21.0,66,30.30,10.0,North,4.6,-,N/A,,Clear,350,2012-11-24 05:56:00